Regional Weather Roundup
Issued by NWS

Home | Current Version | Previous Version | Text Only | Print | Product List | Glossary On
Versions: 1 2 3 4 5 6 7 8 9 10 11 12 13 14 15 16 17 18 19 20 21 22 23 24 25 26 27 28 29 30 31 32 33 34 35 36 37 38 39 40 41 42 43 44 45 46 47 48 49 50
000
ASUS43 KOAX 301302
RWRNE

WEATHER ROUNDUP FOR NEBRASKA
NATIONAL WEATHER SERVICE OMAHA NE
800 AM CDT FRI SEP 30 2016

NOTES: SATELLITE DATA IS BEING USED TO AUGMENT CLOUD COVER ABOVE
       12000 FEET.
       "FAIR" INDICATES FEW OR NO CLOUDS BELOW 12,000 FEET WITH NO
       SIGNIFICANT WEATHER AND/OR OBSTRUCTIONS TO VISIBILITY.

  * THESE STATIONS DO NOT REPORT WEATHER SUCH AS RAIN...SNOW OR FOG.

NEZ001>004-019>022-054>056-301400-
NEBRASKA PANHANDLE

CITY           SKY/WX    TMP DP  RH WIND       PRES   REMARKS
SCOTTSBLUFF    PTCLDY    46  40  79 SE9       30.20R
ALLIANCE       CLOUDY    44  40  85 SE7       30.19F
CHADRON        CLOUDY    54  40  59 S12       30.14F
KIMBALL        CLOUDY    45  42  88 CALM      30.22R
SIDNEY         CLOUDY    43  38  82 SE6       30.22S
$$

NEZ057>060-069>072-079>082-301400-
SOUTHWEST NEBRASKA

CITY           SKY/WX    TMP DP  RH WIND       PRES   REMARKS
NORTH PLATTE   CLEAR     42  41  96 E7        30.26F
IMPERIAL       CLOUDY    44  41  89 SE9       30.24S
LEXINGTON      CLOUDY    40  39  94 E5        30.29S
MCCOOK         CLEAR     44  42  93 E5        30.26F
OGALLALA       CLOUDY    46  43  89 CALM      30.24S
$$

NEZ005>010-023>029-035>040-094-301400-
NORTH CENTRAL NEBRASKA

CITY           SKY/WX    TMP DP  RH WIND       PRES   REMARKS
VALENTINE      CLOUDY    46  42  86 S6        30.25S
AINSWORTH      CLOUDY    46  44  93 S7        30.26S
BROKEN BOW     CLOUDY    36  35  96 CALM      30.28S
O`NEILL        CLOUDY    43  41  95 SE3       30.30S
ORD            FOG       35  34  96 CALM      30.29S VSB 1/4
THEDFORD       CLOUDY    41  40  97 CALM      30.27S
$$

NEZ041-046>049-061>064-073>077-083>087-301400-
SOUTH CENTRAL NEBRASKA

CITY           SKY/WX    TMP DP  RH WIND       PRES   REMARKS
GRAND ISLAND   CLOUDY    41  38  89 CALM      30.31S
AURORA         CLEAR     42  42  99 CALM      30.30S
HASTINGS       CLEAR     43  40  89 CALM      30.31S
HEBRON         CLEAR     40  39  97 CALM      30.30S
HOLDREGE       CLOUDY    41  40  96 CALM      30.30R
KEARNEY *      CLOUDY    41  36  81 CALM      30.30S
YORK           CLEAR     39  39 100 CALM      30.31S
$$

NEZ011>018-030>034-042>045-301400-
NORTHEAST NEBRASKA

CITY           SKY/WX    TMP DP  RH WIND       PRES   REMARKS
NORFOLK        FOG       40  38  93 CALM      30.31S VSB 1
ALBION         CLOUDY    37  36  95 CALM      30.31S
BLAIR          CLEAR     48  46  92 N3        30.30S
FREMONT        CLEAR     45  44  96 CALM      30.32R
TEKAMAH        CLEAR     45  42  89 N6        30.32R
WAYNE          CLEAR     37  36  98 CALM      30.33R FOG
$$

NEZ050>053-065>068-078-088>093-301400-
SOUTHEAST NEBRASKA

CITY           SKY/WX    TMP DP  RH WIND       PRES   REMARKS
LINCOLN        CLEAR     44  42  93 N3        30.32R
OMAHA EPPLEY   CLEAR     47  43  86 N6        30.31R
BEATRICE       CLEAR     42  42  98 CALM      30.30S
FALLS CITY     CLEAR     48  46  93 NW7       30.27F
NEBRASKA CITY  CLEAR     49  47  93 N5        30.29S
PLATTSMOUTH    CLEAR     48  45  90 CALM      30.30S
$$

NEZ044-045-051>053-067-301400-
OMAHA AREA

CITY           SKY/WX    TMP DP  RH WIND       PRES   REMARKS
OMAHA EPPLEY   CLEAR     47  43  86 N6        30.31R
BLAIR          CLEAR     48  46  92 N3        30.30S
FREMONT        CLEAR     45  44  96 CALM      30.32R
MILLARD        CLEAR     48  46  92 CALM      30.31R
PLATTSMOUTH    CLEAR     48  45  90 CALM      30.30S
WAHOO          FAIR      44  43  95 N6        30.31S
$$



USA.gov is the U.S. government's official web portal to all federal, state and local government web resources and services.